Time,TemperatureF,DewpointF,PressureIn,WindDirection,WindDirectionDegrees,WindSpeedMPH,WindSpeedGustMPH,Humidity,HourlyPrecipIn,Conditions,Clouds,dailyrainin,SoftwareType,DateUTC
2013-08-20 00:00:00,71.6,52.0,0.00,WNW,299,5.8,6.2,50,0.00,,,0.00,VWS V15.00,2013-08-20 04:00:00,
2013-08-20 00:01:00,71.4,52.4,0.00,WNW,289,4.9,4.9,51,0.00,,,0.00,VWS V14.01,2013-08-20 04:01:00,
2013-08-20 00:06:00,71.4,52.4,0.00,WNW,289,1.8,5.3,51,0.00,,,0.00,VWS V14.01,2013-08-20 04:06:00,
2013-08-20 00:11:00,71.2,52.2,0.00,NW,305,5.8,5.8,51,0.00,,,0.00,VWS V14.01,2013-08-20 04:11:00,
2013-08-20 00:16:00,71.2,52.7,0.00,WNW,284,5.3,7.1,52,0.00,,,0.00,VWS V14.01,2013-08-20 04:16:00,
2013-08-20 00:21:00,71.2,52.7,0.00,WNW,288,4.9,7.1,52,0.00,,,0.00,VWS V14.01,2013-08-20 04:21:00,
2013-08-20 00:26:00,71.1,53.1,0.00,WNW,285,5.3,7.1,53,0.00,,,0.00,VWS V14.01,2013-08-20 04:26:00,
2013-08-20 00:31:00,71.1,52.6,0.00,West,279,4.0,7.1,52,0.00,,,0.00,VWS V14.01,2013-08-20 04:31:00,
2013-08-20 00:36:00,71.1,52.6,0.00,WSW,249,4.4,7.1,52,0.00,,,0.00,VWS V14.01,2013-08-20 04:36:00,
2013-08-20 00:41:00,71.1,52.6,0.00,WSW,253,4.9,7.1,52,0.00,,,0.00,VWS V14.01,2013-08-20 04:41:00,
2013-08-20 00:46:00,70.9,52.9,0.00,West,275,7.1,8.0,53,0.00,,,0.00,VWS V14.01,2013-08-20 04:46:00,
2013-08-20 00:51:00,70.9,52.4,0.00,West,270,5.8,8.0,52,0.00,,,0.00,VWS V14.01,2013-08-20 04:51:00,
2013-08-20 00:56:00,70.9,50.2,0.00,WNW,289,4.4,8.0,48,0.00,,,0.00,VWS V14.01,2013-08-20 04:56:00,
2013-08-20 01:00:00,71.4,52.4,0.00,WNW,289,4.4,6.7,51,0.00,,,0.00,VWS V15.00,2013-08-20 05:00:00,
2013-08-20 01:01:00,71.1,49.3,0.00,West,271,4.4,4.9,46,0.00,,,0.00,VWS V14.01,2013-08-20 05:01:00,
2013-08-20 01:06:00,70.9,49.7,0.00,North,0,4.4,7.1,47,0.00,,,0.00,VWS V14.01,2013-08-20 05:06:00,
2013-08-20 01:11:00,70.5,49.3,0.00,WNW,299,1.8,7.1,47,0.00,,,0.00,VWS V14.01,2013-08-20 05:11:00,
2013-08-20 01:16:00,70.3,50.3,0.00,WNW,299,4.4,7.1,49,0.00,,,0.00,VWS V14.01,2013-08-20 05:16:00,
2013-08-20 01:21:00,70.2,51.2,0.00,WNW,290,5.3,7.1,51,0.00,,,0.00,VWS V14.01,2013-08-20 05:21:00,
2013-08-20 01:26:00,70.0,52.6,0.00,WNW,292,1.8,7.1,54,0.00,,,0.00,VWS V14.01,2013-08-20 05:26:00,
2013-08-20 01:31:00,69.8,52.9,0.00,West,279,5.3,7.1,55,0.00,,,0.00,VWS V14.01,2013-08-20 05:31:00,
2013-08-20 01:36:00,69.8,53.9,0.00,WNW,291,4.9,7.1,57,0.00,,,0.00,VWS V14.01,2013-08-20 05:36:00,
2013-08-20 01:41:00,70.0,54.5,0.00,WNW,292,5.3,7.1,58,0.00,,,0.00,VWS V14.01,2013-08-20 05:41:00,
2013-08-20 01:46:00,70.2,55.2,0.00,WNW,297,5.3,7.1,59,0.00,,,0.00,VWS V14.01,2013-08-20 05:46:00,
2013-08-20 01:51:00,70.3,55.8,0.00,WNW,297,7.1,7.6,60,0.00,,,0.00,VWS V14.01,2013-08-20 05:51:00,
2013-08-20 01:56:00,70.5,56.0,0.00,WNW,296,7.1,7.6,60,0.00,,,0.00,VWS V14.01,2013-08-20 05:56:00,
2013-08-20 02:00:00,71.1,49.3,0.00,NNW,342,4.9,8.0,46,0.00,,,0.00,VWS V15.00,2013-08-20 06:00:00,
2013-08-20 02:01:00,70.7,55.7,0.00,WNW,287,5.8,6.7,59,0.00,,,0.00,VWS V14.01,2013-08-20 06:01:00,
2013-08-20 02:06:00,70.7,55.2,0.00,WNW,287,5.8,7.1,58,0.00,,,0.00,VWS V14.01,2013-08-20 06:06:00,
2013-08-20 02:11:00,70.7,54.7,0.00,WNW,297,8.0,8.0,57,0.00,,,0.00,VWS V14.01,2013-08-20 06:11:00,
2013-08-20 02:15:00,70.9,54.9,0.00,WNW,285,5.8,8.0,57,0.00,,,0.00,VWS V14.01,2013-08-20 06:15:00,
2013-08-20 02:20:00,70.9,54.4,0.00,WNW,289,8.0,8.0,56,0.00,,,0.00,VWS V14.01,2013-08-20 06:20:00,
2013-08-20 02:25:00,70.7,54.2,0.00,WNW,285,5.3,8.0,56,0.00,,,0.00,VWS V14.01,2013-08-20 06:25:00,
2013-08-20 02:30:00,70.5,54.1,0.00,West,276,5.3,8.0,56,0.00,,,0.00,VWS V14.01,2013-08-20 06:30:00,
2013-08-20 02:35:00,70.3,54.4,0.00,WSW,247,4.4,8.0,57,0.00,,,0.00,VWS V14.01,2013-08-20 06:35:00,
2013-08-20 02:40:00,70.3,54.4,0.00,NNW,338,4.4,8.0,57,0.00,,,0.00,VWS V14.01,2013-08-20 06:40:00,
2013-08-20 02:45:00,70.2,54.2,0.00,WNW,291,5.3,8.0,57,0.00,,,0.00,VWS V14.01,2013-08-20 06:45:00,
2013-08-20 02:50:00,70.0,54.5,0.00,NNW,341,4.4,8.0,58,0.00,,,0.00,VWS V14.01,2013-08-20 06:50:00,
2013-08-20 02:55:00,70.0,55.0,0.00,NNE,14,5.8,8.0,59,0.00,,,0.00,VWS V14.01,2013-08-20 06:55:00,
2013-08-20 03:00:00,69.8,54.8,0.00,NW,311,7.1,7.1,59,0.00,,,0.00,VWS V14.01,2013-08-20 07:00:00,
2013-08-20 03:05:00,69.8,55.3,0.00,West,278,4.4,7.1,60,0.00,,,0.00,VWS V14.01,2013-08-20 07:05:00,
2013-08-20 03:10:00,69.8,55.8,0.00,WSW,257,4.0,7.1,61,0.00,,,0.00,VWS V14.01,2013-08-20 07:10:00,
2013-08-20 03:15:00,69.6,56.0,0.00,NW,309,4.4,7.1,62,0.00,,,0.00,VWS V14.01,2013-08-20 07:15:00,
2013-08-20 03:20:00,69.6,56.0,0.00,NW,324,1.8,7.1,62,0.00,,,0.00,VWS V14.01,2013-08-20 07:20:00,
2013-08-20 03:25:00,69.6,56.0,0.00,WNW,287,4.4,7.1,62,0.00,,,0.00,VWS V14.01,2013-08-20 07:25:00,
2013-08-20 03:30:00,69.6,56.0,0.00,SW,224,4.4,7.1,62,0.00,,,0.00,VWS V14.01,2013-08-20 07:30:00,
2013-08-20 03:35:00,69.4,56.3,0.00,West,259,1.8,7.1,63,0.00,,,0.00,VWS V14.01,2013-08-20 07:35:00,
2013-08-20 03:40:00,69.4,56.3,0.00,East,80,4.0,7.1,63,0.00,,,0.00,VWS V14.01,2013-08-20 07:40:00,
2013-08-20 03:45:00,69.4,56.3,0.00,East,93,1.8,7.1,63,0.00,,,0.00,VWS V14.01,2013-08-20 07:45:00,
2013-08-20 03:50:00,69.4,56.3,0.00,East,93,1.8,7.1,63,0.00,,,0.00,VWS V14.01,2013-08-20 07:50:00,
2013-08-20 03:55:00,69.3,56.6,0.00,West,263,1.8,7.1,64,0.00,,,0.00,VWS V14.01,2013-08-20 07:55:00,
2013-08-20 04:00:00,69.4,56.8,0.00,NW,311,1.8,1.8,64,0.00,,,0.00,VWS V14.01,2013-08-20 08:00:00,
2013-08-20 04:05:00,69.3,56.6,0.00,WNW,303,4.0,4.9,64,0.00,,,0.00,VWS V14.01,2013-08-20 08:05:00,
2013-08-20 04:10:00,69.3,56.6,0.00,WNW,303,4.0,4.9,64,0.00,,,0.00,VWS V14.01,2013-08-20 08:10:00,
2013-08-20 04:15:00,69.3,56.6,0.00,WNW,303,1.8,4.9,64,0.00,,,0.00,VWS V14.01,2013-08-20 08:15:00,
2013-08-20 04:20:00,69.1,56.4,0.00,WNW,303,1.8,4.9,64,0.00,,,0.00,VWS V14.01,2013-08-20 08:20:00,
2013-08-20 04:25:00,69.1,56.4,0.00,WNW,300,1.8,4.9,64,0.00,,,0.00,VWS V14.01,2013-08-20 08:25:00,
2013-08-20 04:30:00,68.9,56.2,0.00,WNW,300,1.8,4.9,64,0.00,,,0.00,VWS V14.01,2013-08-20 08:30:00,
2013-08-20 04:35:00,68.7,56.1,0.00,West,268,1.8,4.9,64,0.00,,,0.00,VWS V14.01,2013-08-20 08:35:00,
2013-08-20 04:40:00,68.5,55.9,0.00,West,268,1.8,4.9,64,0.00,,,0.00,VWS V14.01,2013-08-20 08:40:00,
2013-08-20 04:45:00,68.5,55.9,0.00,West,268,1.8,4.9,64,0.00,,,0.00,VWS V14.01,2013-08-20 08:45:00,
2013-08-20 04:50:00,68.4,55.7,0.00,West,268,1.8,4.9,64,0.00,,,0.00,VWS V14.01,2013-08-20 08:50:00,
2013-08-20 04:55:00,68.2,55.5,0.00,West,268,1.8,4.9,64,0.00,,,0.00,VWS V14.01,2013-08-20 08:55:00,
2013-08-20 05:00:00,67.8,55.2,0.00,West,268,1.8,1.8,64,0.00,,,0.00,VWS V14.01,2013-08-20 09:00:00,
2013-08-20 05:05:00,67.8,55.6,0.00,West,268,1.8,1.8,65,0.00,,,0.00,VWS V14.01,2013-08-20 09:05:00,
2013-08-20 05:10:00,67.5,55.3,0.00,West,268,1.8,1.8,65,0.00,,,0.00,VWS V14.01,2013-08-20 09:10:00,
2013-08-20 05:15:00,67.3,55.1,0.00,West,268,1.8,1.8,65,0.00,,,0.00,VWS V14.01,2013-08-20 09:15:00,
2013-08-20 05:20:00,67.1,55.0,0.00,West,268,1.8,1.8,65,0.00,,,0.00,VWS V14.01,2013-08-20 09:20:00,
2013-08-20 05:25:00,66.9,54.8,0.00,West,268,1.8,1.8,65,0.00,,,0.00,VWS V14.01,2013-08-20 09:25:00,
2013-08-20 05:30:00,66.9,55.2,0.00,West,268,1.8,1.8,66,0.00,,,0.00,VWS V14.01,2013-08-20 09:30:00,
2013-08-20 05:35:00,66.9,55.2,0.00,West,268,1.8,1.8,66,0.00,,,0.00,VWS V14.01,2013-08-20 09:35:00,
2013-08-20 05:40:00,66.9,55.2,0.00,West,268,1.8,1.8,66,0.00,,,0.00,VWS V14.01,2013-08-20 09:40:00,
2013-08-20 05:45:00,66.9,55.6,0.00,West,268,1.8,1.8,67,0.00,,,0.00,VWS V14.01,2013-08-20 09:45:00,
2013-08-20 05:50:00,66.9,55.6,0.00,West,268,1.8,1.8,67,0.00,,,0.00,VWS V14.01,2013-08-20 09:50:00,
2013-08-20 05:55:00,66.7,55.5,0.00,West,268,1.8,1.8,67,0.00,,,0.00,VWS V14.01,2013-08-20 09:55:00,
2013-08-20 06:00:00,66.6,55.3,0.00,West,268,1.8,1.8,67,0.00,,,0.00,VWS V14.01,2013-08-20 10:00:00,
2013-08-20 06:05:00,66.4,55.1,0.00,West,268,1.8,1.8,67,0.00,,,0.00,VWS V14.01,2013-08-20 10:05:00,
2013-08-20 06:10:00,66.2,54.9,0.00,West,268,1.8,1.8,67,0.00,,,0.00,VWS V14.01,2013-08-20 10:10:00,
2013-08-20 06:15:00,66.0,55.2,0.00,West,268,1.8,1.8,68,0.00,,,0.00,VWS V14.01,2013-08-20 10:15:00,
2013-08-20 06:20:00,66.2,55.3,0.00,West,268,1.8,1.8,68,0.00,,,0.00,VWS V14.01,2013-08-20 10:20:00,
2013-08-20 06:25:00,66.0,55.2,0.00,West,268,1.8,1.8,68,0.00,,,0.00,VWS V14.01,2013-08-20 10:25:00,
2013-08-20 06:30:00,66.2,55.3,0.00,NNW,330,1.8,1.8,68,0.00,,,0.00,VWS V14.01,2013-08-20 10:30:00,
2013-08-20 06:35:00,66.4,55.9,0.00,NNW,330,1.8,1.8,69,0.00,,,0.00,VWS V14.01,2013-08-20 10:35:00,
2013-08-20 06:40:00,66.7,56.3,0.00,NNW,330,1.8,1.8,69,0.00,,,0.00,VWS V14.01,2013-08-20 10:40:00,
2013-08-20 06:45:00,66.9,56.8,0.00,NNW,330,1.8,1.8,70,0.00,,,0.00,VWS V14.01,2013-08-20 10:45:00,
2013-08-20 06:50:00,67.3,57.2,0.00,North,3,1.8,1.8,70,0.00,,,0.00,VWS V14.01,2013-08-20 10:50:00,
2013-08-20 06:55:00,67.6,57.5,0.00,North,3,1.8,1.8,70,0.00,,,0.00,VWS V14.01,2013-08-20 10:55:00,
2013-08-20 07:00:00,67.8,57.7,0.00,NNW,348,1.8,4.0,70,0.00,,,0.00,VWS V14.01,2013-08-20 11:00:00,
2013-08-20 07:05:00,68.2,58.0,0.00,SW,226,1.8,1.8,70,0.00,,,0.00,VWS V14.01,2013-08-20 11:05:00,
2013-08-20 07:10:00,68.4,58.2,0.00,WNW,302,1.8,1.8,70,0.00,,,0.00,VWS V14.01,2013-08-20 11:10:00,
2013-08-20 07:15:00,68.5,58.4,0.00,North,1,1.8,1.8,70,0.00,,,0.00,VWS V14.01,2013-08-20 11:15:00,
2013-08-20 07:20:00,68.7,58.2,0.00,NNW,338,1.8,1.8,69,0.00,,,0.00,VWS V14.01,2013-08-20 11:20:00,
2013-08-20 07:25:00,68.9,58.3,0.00,NNW,338,1.8,1.8,69,0.00,,,0.00,VWS V14.01,2013-08-20 11:25:00,
2013-08-20 07:30:00,69.1,58.1,0.00,NNW,338,1.8,1.8,68,0.00,,,0.00,VWS V14.01,2013-08-20 11:30:00,
2013-08-20 07:35:00,69.3,58.3,0.00,NNW,339,1.8,1.8,68,0.00,,,0.00,VWS V14.01,2013-08-20 11:35:00,
2013-08-20 07:40:00,69.4,58.0,0.00,NNW,338,1.8,1.8,67,0.00,,,0.00,VWS V14.01,2013-08-20 11:40:00,
2013-08-20 07:45:00,69.6,58.2,0.00,NNW,338,1.8,1.8,67,0.00,,,0.00,VWS V14.01,2013-08-20 11:45:00,
2013-08-20 07:50:00,69.8,57.9,0.00,NNW,344,1.8,1.8,66,0.00,,,0.00,VWS V14.01,2013-08-20 11:50:00,
2013-08-20 07:55:00,70.0,57.7,0.00,NNW,346,1.8,1.8,65,0.00,,,0.00,VWS V14.01,2013-08-20 11:55:00,
2013-08-20 08:00:00,70.2,57.4,0.00,NNW,339,1.8,1.8,64,0.00,,,0.00,VWS V14.01,2013-08-20 12:00:00,
2013-08-20 08:05:00,70.2,57.0,0.00,NNW,339,1.8,4.4,63,0.00,,,0.00,VWS V14.01,2013-08-20 12:05:00,
2013-08-20 08:10:00,70.3,56.7,0.00,NNW,333,1.8,4.4,62,0.00,,,0.00,VWS V14.01,2013-08-20 12:10:00,
2013-08-20 08:15:00,70.3,56.7,0.00,NNW,333,1.8,4.4,62,0.00,,,0.00,VWS V14.01,2013-08-20 12:15:00,
2013-08-20 08:20:00,70.5,56.0,0.00,NNW,333,1.8,4.4,60,0.00,,,0.00,VWS V14.01,2013-08-20 12:20:00,
2013-08-20 08:25:00,70.7,55.7,0.00,WNW,292,1.8,4.4,59,0.00,,,0.00,VWS V14.01,2013-08-20 12:25:00,
2013-08-20 08:30:00,70.9,54.9,0.00,WNW,292,1.8,4.4,57,0.00,,,0.00,VWS V14.01,2013-08-20 12:30:00,
2013-08-20 08:35:00,70.9,53.4,0.00,NNW,341,1.8,7.1,54,0.00,,,0.00,VWS V14.01,2013-08-20 12:35:00,
2013-08-20 08:40:00,71.2,53.8,0.00,NNW,341,1.8,7.1,54,0.00,,,0.00,VWS V14.01,2013-08-20 12:40:00,
2013-08-20 08:45:00,71.4,52.9,0.00,North,353,4.9,7.1,52,0.00,,,0.00,VWS V14.01,2013-08-20 12:45:00,
2013-08-20 08:50:00,71.4,51.3,0.00,North,353,1.8,7.1,49,0.00,,,0.00,VWS V14.01,2013-08-20 12:50:00,
2013-08-20 08:55:00,71.8,51.6,0.00,North,353,1.8,7.1,49,0.00,,,0.00,VWS V14.01,2013-08-20 12:55:00,
2013-08-20 09:00:00,72.0,51.2,0.00,NW,314,1.8,7.1,48,0.00,,,0.00,VWS V14.01,2013-08-20 13:00:00,
2013-08-20 09:05:00,72.0,50.7,0.00,NW,310,4.0,4.4,47,0.00,,,0.00,VWS V14.01,2013-08-20 13:05:00,
2013-08-20 09:10:00,72.0,50.1,0.00,NW,322,1.8,4.4,46,0.00,,,0.00,VWS V14.01,2013-08-20 13:10:00,
2013-08-20 09:15:00,72.3,50.4,0.00,NW,319,4.0,4.4,46,0.00,,,0.00,VWS V14.01,2013-08-20 13:15:00,
2013-08-20 09:20:00,72.3,49.8,0.00,NW,319,1.8,4.4,45,0.00,,,0.00,VWS V14.01,2013-08-20 13:20:00,
2013-08-20 09:25:00,72.5,50.0,0.00,NW,319,1.8,4.4,45,0.00,,,0.00,VWS V14.01,2013-08-20 13:25:00,
2013-08-20 09:30:00,72.9,49.7,0.00,NW,319,1.8,4.4,44,0.00,,,0.00,VWS V14.01,2013-08-20 13:30:00,
2013-08-20 09:35:00,73.0,49.9,0.00,WNW,303,1.8,4.4,44,0.00,,,0.00,VWS V14.01,2013-08-20 13:35:00,
2013-08-20 09:40:00,73.2,49.4,0.00,WNW,303,1.8,4.4,43,0.00,,,0.00,VWS V14.01,2013-08-20 13:40:00,
2013-08-20 09:45:00,73.4,48.9,0.00,WNW,303,1.8,5.3,42,0.00,,,0.00,VWS V14.01,2013-08-20 13:45:00,
2013-08-20 09:50:00,73.6,49.1,0.00,WNW,303,1.8,5.3,42,0.00,,,0.00,VWS V14.01,2013-08-20 13:50:00,
2013-08-20 09:55:00,73.6,48.5,0.00,WNW,303,1.8,5.3,41,0.00,,,0.00,VWS V14.01,2013-08-20 13:55:00,
2013-08-20 10:00:00,73.6,47.8,0.00,WNW,303,1.8,5.3,40,0.00,,,0.00,VWS V14.01,2013-08-20 14:00:00,
2013-08-20 10:05:00,73.8,48.0,0.00,NW,321,1.8,4.9,40,0.00,,,0.00,VWS V14.01,2013-08-20 14:05:00,
2013-08-20 10:10:00,73.9,48.1,0.00,WNW,284,1.8,4.9,40,0.00,,,0.00,VWS V14.01,2013-08-20 14:10:00,
2013-08-20 10:15:00,74.1,47.6,0.00,WNW,287,1.8,4.9,39,0.00,,,0.00,VWS V14.01,2013-08-20 14:15:00,
2013-08-20 10:20:00,74.3,47.8,0.00,NNW,344,4.0,4.9,39,0.00,,,0.00,VWS V14.01,2013-08-20 14:20:00,
2013-08-20 10:25:00,74.7,47.4,0.00,WNW,301,4.4,5.8,38,0.00,,,0.00,VWS V14.01,2013-08-20 14:25:00,
2013-08-20 10:30:00,74.7,46.7,0.00,WNW,287,4.9,5.8,37,0.00,,,0.00,VWS V14.01,2013-08-20 14:30:00,
2013-08-20 10:35:00,74.7,46.7,0.00,WNW,294,4.4,5.8,37,0.00,,,0.00,VWS V14.01,2013-08-20 14:35:00,
2013-08-20 10:40:00,74.8,46.8,0.00,NW,321,4.4,5.8,37,0.00,,,0.00,VWS V14.01,2013-08-20 14:40:00,
2013-08-20 10:45:00,75.0,47.0,0.00,North,5,4.4,5.8,37,0.00,,,0.00,VWS V14.01,2013-08-20 14:45:00,
2013-08-20 10:50:00,75.4,46.6,0.00,WNW,290,1.8,5.8,36,0.00,,,0.00,VWS V14.01,2013-08-20 14:50:00,
2013-08-20 10:55:00,75.6,46.8,0.00,West,281,4.4,5.8,36,0.00,,,0.00,VWS V14.01,2013-08-20 14:55:00,
2013-08-20 11:00:00,75.6,46.0,0.00,West,281,1.8,5.8,35,0.00,,,0.00,VWS V14.01,2013-08-20 15:00:00,
2013-08-20 11:05:00,75.7,46.2,0.00,West,281,1.8,4.9,35,0.00,,,0.00,VWS V14.01,2013-08-20 15:05:00,
2013-08-20 11:10:00,76.1,46.5,0.00,West,281,4.4,4.9,35,0.00,,,0.00,VWS V14.01,2013-08-20 15:10:00,
2013-08-20 11:15:00,76.1,46.5,0.00,WNW,292,4.0,5.3,35,0.00,,,0.00,VWS V14.01,2013-08-20 15:15:00,
2013-08-20 11:20:00,76.3,46.7,0.00,WNW,293,5.3,5.3,35,0.00,,,0.00,VWS V14.01,2013-08-20 15:20:00,
2013-08-20 11:25:00,76.1,46.5,0.00,West,281,5.3,5.3,35,0.00,,,0.00,VWS V14.01,2013-08-20 15:25:00,
2013-08-20 11:30:00,76.1,46.5,0.00,West,280,1.8,5.8,35,0.00,,,0.00,VWS V14.01,2013-08-20 15:30:00,
2013-08-20 11:35:00,76.1,47.2,0.00,WNW,299,4.4,5.8,36,0.00,,,0.00,VWS V14.01,2013-08-20 15:35:00,
2013-08-20 11:40:00,76.1,47.2,0.00,WNW,289,4.4,5.8,36,0.00,,,0.00,VWS V14.01,2013-08-20 15:40:00,
2013-08-20 11:45:00,76.3,47.4,0.00,WNW,297,4.0,5.8,36,0.00,,,0.00,VWS V14.01,2013-08-20 15:45:00,
2013-08-20 11:50:00,76.5,48.3,0.00,West,270,4.4,5.8,37,0.00,,,0.00,VWS V14.01,2013-08-20 15:50:00,
2013-08-20 11:55:00,77.0,48.0,0.00,WNW,284,4.4,6.7,36,0.00,,,0.00,VWS V14.01,2013-08-20 15:55:00,
2013-08-20 12:00:00,77.2,48.2,0.00,WNW,299,4.4,6.7,36,0.00,,,0.00,VWS V14.01,2013-08-20 16:00:00,
2013-08-20 12:05:00,77.4,48.3,0.00,WNW,296,4.0,5.8,36,0.00,,,0.00,VWS V14.01,2013-08-20 16:05:00,
2013-08-20 12:10:00,77.4,48.3,0.00,WNW,291,4.4,5.8,36,0.00,,,0.00,VWS V14.01,2013-08-20 16:10:00,
2013-08-20 12:15:00,77.5,48.5,0.00,WNW,290,5.8,5.8,36,0.00,,,0.00,VWS V14.01,2013-08-20 16:15:00,
2013-08-20 12:20:00,77.4,47.6,0.00,WNW,284,4.4,6.7,35,0.00,,,0.00,VWS V14.01,2013-08-20 16:20:00,
2013-08-20 12:25:00,77.7,48.7,0.00,WSW,258,4.4,6.7,36,0.00,,,0.00,VWS V14.01,2013-08-20 16:25:00,
2013-08-20 12:30:00,78.3,48.4,0.00,West,274,4.4,6.7,35,0.00,,,0.00,VWS V14.01,2013-08-20 16:30:00,
2013-08-20 12:35:00,78.4,48.5,0.00,West,277,4.4,6.7,35,0.00,,,0.00,VWS V14.01,2013-08-20 16:35:00,
2013-08-20 12:40:00,78.6,48.7,0.00,WSW,243,1.8,6.7,35,0.00,,,0.00,VWS V14.01,2013-08-20 16:40:00,
2013-08-20 12:45:00,79.0,48.2,0.00,WNW,284,1.8,6.7,34,0.00,,,0.00,VWS V14.01,2013-08-20 16:45:00,
2013-08-20 12:50:00,79.3,48.6,0.00,WNW,284,4.4,6.7,34,0.00,,,0.00,VWS V14.01,2013-08-20 16:50:00,
2013-08-20 12:55:00,79.3,47.0,0.00,WNW,286,4.4,6.7,32,0.00,,,0.00,VWS V14.01,2013-08-20 16:55:00,
2013-08-20 12:59:00,79.5,47.9,0.00,WNW,284,4.9,6.7,33,0.00,,,0.00,VWS V14.01,2013-08-20 16:59:00,
2013-08-20 13:00:00,77.2,48.2,0.00,WNW,298,5.3,6.7,36,0.00,,,0.00,VWS V15.00,2013-08-20 17:00:00,
2013-08-20 13:04:00,79.7,47.3,0.00,West,272,5.3,5.8,32,0.00,,,0.00,VWS V14.01,2013-08-20 17:04:00,
2013-08-20 13:09:00,79.7,47.3,0.00,WNW,288,4.9,6.7,32,0.00,,,0.00,VWS V14.01,2013-08-20 17:09:00,
2013-08-20 13:14:00,79.5,47.1,0.00,West,279,4.9,6.7,32,0.00,,,0.00,VWS V14.01,2013-08-20 17:14:00,
2013-08-20 13:19:00,79.9,46.6,0.00,West,270,4.9,6.7,31,0.00,,,0.00,VWS V14.01,2013-08-20 17:19:00,
2013-08-20 13:24:00,80.1,46.7,0.00,WNW,290,5.3,6.7,31,0.00,,,0.00,VWS V14.01,2013-08-20 17:24:00,
2013-08-20 13:29:00,80.1,46.7,0.00,SSW,199,4.4,6.7,31,0.00,,,0.00,VWS V14.01,2013-08-20 17:29:00,
2013-08-20 13:34:00,80.1,45.9,0.00,WNW,295,4.9,6.7,30,0.00,,,0.00,VWS V14.01,2013-08-20 17:34:00,
2013-08-20 13:39:00,80.1,45.9,0.00,West,269,4.9,6.7,30,0.00,,,0.00,VWS V14.01,2013-08-20 17:39:00,
2013-08-20 13:44:00,80.4,47.0,0.00,WNW,299,4.4,6.7,31,0.00,,,0.00,VWS V14.01,2013-08-20 17:44:00,
2013-08-20 13:49:00,80.6,46.3,0.00,WNW,295,4.4,6.7,30,0.00,,,0.00,VWS V14.01,2013-08-20 17:49:00,
2013-08-20 13:54:00,81.0,46.6,0.00,West,261,4.9,6.7,30,0.00,,,0.00,VWS V14.01,2013-08-20 17:54:00,
2013-08-20 13:59:00,81.1,46.8,0.00,West,279,4.4,6.7,30,0.00,,,0.00,VWS V14.01,2013-08-20 17:59:00,
2013-08-20 14:00:00,79.5,47.9,0.00,WNW,284,4.0,6.7,33,0.00,,,0.00,VWS V15.00,2013-08-20 18:00:00,
2013-08-20 14:04:00,81.3,47.0,0.00,WSW,242,4.0,5.3,30,0.00,,,0.00,VWS V14.01,2013-08-20 18:04:00,
2013-08-20 14:09:00,81.5,47.1,0.00,WNW,293,4.4,5.8,30,0.00,,,0.00,VWS V14.01,2013-08-20 18:09:00,
2013-08-20 14:14:00,81.7,46.4,0.00,WSW,254,4.9,5.8,29,0.00,,,0.00,VWS V14.01,2013-08-20 18:14:00,
2013-08-20 14:19:00,81.7,47.3,0.00,WNW,287,4.9,5.8,30,0.00,,,0.00,VWS V14.01,2013-08-20 18:19:00,
2013-08-20 14:24:00,81.5,47.1,0.00,SSW,196,5.8,6.7,30,0.00,,,0.00,VWS V14.01,2013-08-20 18:24:00,
2013-08-20 14:29:00,81.3,47.0,0.00,West,275,4.4,6.7,30,0.00,,,0.00,VWS V14.01,2013-08-20 18:29:00,
2013-08-20 14:34:00,81.1,45.9,0.00,West,276,5.8,8.0,29,0.00,,,0.00,VWS V14.01,2013-08-20 18:34:00,
2013-08-20 14:39:00,81.1,45.9,0.00,WSW,254,4.4,8.0,29,0.00,,,0.00,VWS V14.01,2013-08-20 18:39:00,
2013-08-20 14:44:00,81.5,46.2,0.00,WNW,289,4.9,8.0,29,0.00,,,0.00,VWS V14.01,2013-08-20 18:44:00,
2013-08-20 14:49:00,81.5,46.2,0.00,West,280,5.3,8.0,29,0.00,,,0.00,VWS V14.01,2013-08-20 18:49:00,
2013-08-20 14:54:00,81.5,46.2,0.00,WNW,292,5.8,8.0,29,0.00,,,0.00,VWS V14.01,2013-08-20 18:54:00,
2013-08-20 14:59:00,81.5,46.2,0.00,WSW,253,4.4,8.0,29,0.00,,,0.00,VWS V14.01,2013-08-20 18:59:00,
2013-08-20 15:00:00,81.3,47.0,0.00,WSW,250,4.9,6.7,30,0.00,,,0.00,VWS V15.00,2013-08-20 19:00:00,
2013-08-20 15:04:00,81.7,45.4,0.00,WNW,293,4.9,7.1,28,0.00,,,0.00,VWS V14.01,2013-08-20 19:04:00,
2013-08-20 15:09:00,81.7,46.4,0.00,West,265,5.3,7.1,29,0.00,,,0.00,VWS V14.01,2013-08-20 19:09:00,
2013-08-20 15:14:00,81.9,45.6,0.00,WSW,248,4.9,7.1,28,0.00,,,0.00,VWS V14.01,2013-08-20 19:14:00,
2013-08-20 15:19:00,82.0,45.8,0.00,SSW,192,4.9,7.1,28,0.00,,,0.00,VWS V14.01,2013-08-20 19:19:00,
2013-08-20 15:24:00,82.0,44.8,0.00,West,276,4.4,7.1,27,0.00,,,0.00,VWS V14.01,2013-08-20 19:24:00,
2013-08-20 15:29:00,81.9,44.6,0.00,WNW,283,4.9,7.1,27,0.00,,,0.00,VWS V14.01,2013-08-20 19:29:00,
2013-08-20 15:34:00,82.0,45.8,0.00,WNW,288,4.4,7.1,28,0.00,,,0.00,VWS V14.01,2013-08-20 19:34:00,
2013-08-20 15:39:00,82.2,45.9,0.00,WNW,293,4.4,7.1,28,0.00,,,0.00,VWS V14.01,2013-08-20 19:39:00,
2013-08-20 15:44:00,82.6,45.2,0.00,WSW,245,4.9,7.1,27,0.00,,,0.00,VWS V14.01,2013-08-20 19:44:00,
2013-08-20 15:49:00,82.8,45.4,0.00,West,271,5.8,7.1,27,0.00,,,0.00,VWS V14.01,2013-08-20 19:49:00,
2013-08-20 15:54:00,82.6,44.3,0.00,WSW,250,4.4,7.1,26,0.00,,,0.00,VWS V14.01,2013-08-20 19:54:00,
2013-08-20 15:59:00,82.4,44.1,0.00,WNW,295,4.9,8.0,26,0.00,,,0.00,VWS V14.01,2013-08-20 19:59:00,
2013-08-20 16:00:00,81.5,46.2,0.00,West,271,4.4,8.0,29,0.00,,,0.00,VWS V15.00,2013-08-20 20:00:00,
2013-08-20 16:04:00,82.2,44.0,0.00,West,277,4.9,5.3,26,0.00,,,0.00,VWS V14.01,2013-08-20 20:04:00,
2013-08-20 16:09:00,82.0,43.8,0.00,WNW,299,4.4,5.8,26,0.00,,,0.00,VWS V14.01,2013-08-20 20:09:00,
2013-08-20 16:14:00,81.7,43.5,0.00,WSW,256,5.3,6.7,26,0.00,,,0.00,VWS V14.01,2013-08-20 20:14:00,
2013-08-20 16:19:00,81.3,44.2,0.00,West,278,4.9,6.7,27,0.00,,,0.00,VWS V14.01,2013-08-20 20:19:00,
2013-08-20 16:24:00,81.0,43.9,0.00,West,261,4.4,6.7,27,0.00,,,0.00,VWS V14.01,2013-08-20 20:24:00,
2013-08-20 16:29:00,81.0,44.8,0.00,West,278,4.9,6.7,28,0.00,,,0.00,VWS V14.01,2013-08-20 20:29:00,
2013-08-20 16:34:00,81.0,44.8,0.00,WNW,285,4.4,7.1,28,0.00,,,0.00,VWS V14.01,2013-08-20 20:34:00,
2013-08-20 16:39:00,81.0,45.8,0.00,West,263,4.9,7.1,29,0.00,,,0.00,VWS V14.01,2013-08-20 20:39:00,
2013-08-20 16:44:00,81.1,45.9,0.00,West,274,4.0,7.1,29,0.00,,,0.00,VWS V14.01,2013-08-20 20:44:00,
2013-08-20 16:49:00,81.5,46.2,0.00,West,261,4.4,7.1,29,0.00,,,0.00,VWS V14.01,2013-08-20 20:49:00,
2013-08-20 16:54:00,81.5,45.3,0.00,WNW,297,5.3,7.1,28,0.00,,,0.00,VWS V14.01,2013-08-20 20:54:00,
2013-08-20 16:59:00,81.5,45.3,0.00,SW,233,5.3,7.1,28,0.00,,,0.00,VWS V14.01,2013-08-20 20:59:00,
2013-08-20 17:00:00,82.4,44.1,0.00,NW,326,5.3,8.0,26,0.00,,,0.00,VWS V15.00,2013-08-20 21:00:00,
2013-08-20 17:04:00,81.5,44.3,0.00,WSW,250,5.8,5.8,27,0.00,,,0.00,VWS V14.01,2013-08-20 21:04:00,
2013-08-20 17:09:00,81.7,44.5,0.00,West,259,4.4,5.8,27,0.00,,,0.00,VWS V14.01,2013-08-20 21:09:00,
2013-08-20 17:14:00,82.0,44.8,0.00,West,277,4.9,5.8,27,0.00,,,0.00,VWS V14.01,2013-08-20 21:14:00,
2013-08-20 17:19:00,82.4,44.1,0.00,West,272,4.4,5.8,26,0.00,,,0.00,VWS V14.01,2013-08-20 21:19:00,
2013-08-20 17:24:00,84.4,44.8,0.00,WNW,290,5.8,7.6,25,0.00,,,0.00,VWS V14.01,2013-08-20 21:24:00,
2013-08-20 17:29:00,89.8,44.7,0.00,NW,305,6.7,7.6,21,0.00,,,0.00,VWS V14.01,2013-08-20 21:29:00,
2013-08-20 17:34:00,90.7,42.8,0.00,WNW,287,5.3,7.6,19,0.00,,,0.00,VWS V14.01,2013-08-20 21:34:00,
2013-08-20 17:39:00,88.3,40.9,0.00,WNW,297,6.7,7.6,19,0.00,,,0.00,VWS V14.01,2013-08-20 21:39:00,
2013-08-20 17:44:00,87.3,41.3,0.00,WNW,302,6.7,7.6,20,0.00,,,0.00,VWS V14.01,2013-08-20 21:44:00,
2013-08-20 17:49:00,87.4,41.5,0.00,WNW,291,4.9,7.6,20,0.00,,,0.00,VWS V14.01,2013-08-20 21:49:00,
2013-08-20 17:54:00,85.6,40.0,0.00,WNW,289,6.7,7.6,20,0.00,,,0.00,VWS V14.01,2013-08-20 21:54:00,
2013-08-20 17:59:00,83.5,39.5,0.00,WNW,288,6.7,8.0,21,0.00,,,0.00,VWS V14.01,2013-08-20 21:59:00,
2013-08-20 18:00:00,81.5,45.3,0.00,West,267,4.4,7.1,28,0.00,,,0.00,VWS V15.00,2013-08-20 22:00:00,
2013-08-20 18:04:00,81.1,39.9,0.00,WNW,295,5.3,8.0,23,0.00,,,0.00,VWS V14.01,2013-08-20 22:04:00,
2013-08-20 18:09:00,79.5,40.7,0.00,WNW,291,4.4,8.0,25,0.00,,,0.00,VWS V14.01,2013-08-20 22:09:00,
2013-08-20 18:14:00,78.8,42.0,0.00,NW,307,6.2,8.0,27,0.00,,,0.00,VWS V14.01,2013-08-20 22:14:00,
2013-08-20 18:19:00,79.0,44.0,0.00,West,278,4.9,8.0,29,0.00,,,0.00,VWS V14.01,2013-08-20 22:19:00,
2013-08-20 18:24:00,79.9,44.8,0.00,West,277,4.4,8.0,29,0.00,,,0.00,VWS V14.01,2013-08-20 22:24:00,
2013-08-20 18:29:00,79.5,43.6,0.00,West,260,4.9,8.0,28,0.00,,,0.00,VWS V14.01,2013-08-20 22:29:00,
2013-08-20 18:34:00,78.6,44.6,0.00,West,277,4.9,8.0,30,0.00,,,0.00,VWS V14.01,2013-08-20 22:34:00,
2013-08-20 18:39:00,78.1,44.2,0.00,WNW,287,4.9,8.0,30,0.00,,,0.00,VWS V14.01,2013-08-20 22:39:00,
2013-08-20 18:44:00,77.4,43.5,0.00,West,280,4.4,8.0,30,0.00,,,0.00,VWS V14.01,2013-08-20 22:44:00,
2013-08-20 18:49:00,76.8,43.9,0.00,West,280,4.0,8.0,31,0.00,,,0.00,VWS V14.01,2013-08-20 22:49:00,
2013-08-20 18:54:00,76.1,44.1,0.00,NW,304,5.3,8.0,32,0.00,,,0.00,VWS V14.01,2013-08-20 22:54:00,
2013-08-20 18:59:00,76.1,44.1,0.00,WNW,292,5.3,8.0,32,0.00,,,0.00,VWS V14.01,2013-08-20 22:59:00,
2013-08-20 19:00:00,83.1,39.2,0.00,WNW,299,5.3,8.0,21,0.00,,,0.00,VWS V15.00,2013-08-20 23:00:00,
2013-08-20 19:04:00,75.4,43.5,0.00,West,279,4.0,5.8,32,0.00,,,0.00,VWS V14.01,2013-08-20 23:04:00,
2013-08-20 19:09:00,75.0,44.0,0.00,West,267,4.4,5.8,33,0.00,,,0.00,VWS V14.01,2013-08-20 23:09:00,
2013-08-20 19:14:00,74.7,44.5,0.00,West,271,1.8,5.8,34,0.00,,,0.00,VWS V14.01,2013-08-20 23:14:00,
2013-08-20 19:19:00,74.3,44.1,0.00,West,277,4.0,5.8,34,0.00,,,0.00,VWS V14.01,2013-08-20 23:19:00,
2013-08-20 19:24:00,73.9,44.6,0.00,WSW,251,4.9,5.8,35,0.00,,,0.00,VWS V14.01,2013-08-20 23:24:00,
2013-08-20 19:29:00,73.8,44.4,0.00,West,261,4.0,7.6,35,0.00,,,0.00,VWS V14.01,2013-08-20 23:29:00,
2013-08-20 19:34:00,73.6,45.0,0.00,WSW,246,4.4,7.6,36,0.00,,,0.00,VWS V14.01,2013-08-20 23:34:00,
2013-08-20 19:39:00,73.4,45.6,0.00,SSW,193,1.8,7.6,37,0.00,,,0.00,VWS V14.01,2013-08-20 23:39:00,
2013-08-20 19:44:00,73.2,46.1,0.00,South,179,4.4,7.6,38,0.00,,,0.00,VWS V14.01,2013-08-20 23:44:00,
2013-08-20 19:49:00,73.0,46.6,0.00,SSW,196,1.8,7.6,39,0.00,,,0.00,VWS V14.01,2013-08-20 23:49:00,
2013-08-20 19:54:00,72.9,47.2,0.00,SSE,154,4.0,7.6,40,0.00,,,0.00,VWS V14.01,2013-08-20 23:54:00,
2013-08-20 19:59:00,72.7,47.0,0.00,SSE,163,1.8,7.6,40,0.00,,,0.00,VWS V14.01,2013-08-20 23:59:00,
2013-08-20 20:00:00,76.1,44.1,0.00,West,261,1.8,8.0,32,0.00,,,0.00,VWS V15.00,2013-08-21 00:00:00,
2013-08-20 20:04:00,72.5,47.5,0.00,SSE,163,1.8,1.8,41,0.00,,,0.00,VWS V14.01,2013-08-21 00:04:00,
2013-08-20 20:09:00,72.3,48.0,0.00,SSE,163,1.8,1.8,42,0.00,,,0.00,VWS V14.01,2013-08-21 00:09:00,
2013-08-20 20:14:00,72.1,47.8,0.00,SSE,163,1.8,1.8,42,0.00,,,0.00,VWS V14.01,2013-08-21 00:14:00,
2013-08-20 20:19:00,72.0,48.3,0.00,SE,131,1.8,6.7,43,0.00,,,0.00,VWS V14.01,2013-08-21 00:19:00,
2013-08-20 20:25:00,72.0,48.3,0.00,SSE,168,1.8,6.7,43,0.00,,,0.00,VWS V14.01,2013-08-21 00:25:00,
2013-08-20 20:30:00,71.8,48.7,0.00,SSW,198,1.8,6.7,44,0.00,,,0.00,VWS V14.01,2013-08-21 00:30:00,
2013-08-20 20:35:00,71.8,49.3,0.00,South,177,1.8,6.7,45,0.00,,,0.00,VWS V14.01,2013-08-21 00:35:00,
2013-08-20 20:39:00,71.6,49.2,0.00,South,185,1.8,6.7,45,0.00,,,0.00,VWS V14.01,2013-08-21 00:39:00,
2013-08-20 20:44:00,71.6,49.8,0.00,WSW,247,1.8,6.7,46,0.00,,,0.00,VWS V14.01,2013-08-21 00:44:00,
2013-08-20 20:49:00,71.4,50.2,0.00,WSW,237,1.8,6.7,47,0.00,,,0.00,VWS V14.01,2013-08-21 00:49:00,
2013-08-20 20:54:00,71.4,50.7,0.00,SSW,192,1.8,6.7,48,0.00,,,0.00,VWS V14.01,2013-08-21 00:54:00,
2013-08-20 20:59:00,71.2,50.6,0.00,South,184,1.8,6.7,48,0.00,,,0.00,VWS V14.01,2013-08-21 00:59:00,
2013-08-20 21:00:00,72.7,47.0,0.00,SSE,163,1.8,7.6,40,0.00,,,0.00,VWS V15.00,2013-08-21 01:00:00,
2013-08-20 21:04:00,71.2,51.1,0.00,SW,215,1.8,1.8,49,0.00,,,0.00,VWS V14.01,2013-08-21 01:04:00,
2013-08-20 21:09:00,71.2,51.7,0.00,SW,229,1.8,1.8,50,0.00,,,0.00,VWS V14.01,2013-08-21 01:09:00,
2013-08-20 21:14:00,71.2,52.2,0.00,WNW,289,1.8,1.8,51,0.00,,,0.00,VWS V14.01,2013-08-21 01:14:00,
2013-08-20 21:19:00,71.2,53.2,0.00,WNW,282,1.8,1.8,53,0.00,,,0.00,VWS V14.01,2013-08-21 01:19:00,
2013-08-20 21:24:00,71.2,54.3,0.00,West,268,1.8,1.8,55,0.00,,,0.00,VWS V14.01,2013-08-21 01:24:00,
2013-08-20 21:29:00,71.2,54.3,0.00,SSW,197,1.8,1.8,55,0.00,,,0.00,VWS V14.01,2013-08-21 01:29:00,
2013-08-20 21:34:00,71.2,54.8,0.00,SSE,164,1.8,1.8,56,0.00,,,0.00,VWS V14.01,2013-08-21 01:34:00,
2013-08-20 21:39:00,71.1,54.6,0.00,South,182,1.8,1.8,56,0.00,,,0.00,VWS V14.01,2013-08-21 01:39:00,
2013-08-20 21:44:00,71.1,54.6,0.00,South,186,1.8,1.8,56,0.00,,,0.00,VWS V14.01,2013-08-21 01:44:00,
2013-08-20 21:49:00,71.1,55.1,0.00,South,186,1.8,1.8,57,0.00,,,0.00,VWS V14.01,2013-08-21 01:49:00,
2013-08-20 21:54:00,71.1,55.1,0.00,South,186,1.8,1.8,57,0.00,,,0.00,VWS V14.01,2013-08-21 01:54:00,
2013-08-20 21:59:00,71.1,55.1,0.00,South,186,1.8,1.8,57,0.00,,,0.00,VWS V14.01,2013-08-21 01:59:00,
2013-08-20 22:00:00,71.2,51.1,0.00,SSW,200,1.8,6.7,49,0.00,,,0.00,VWS V15.00,2013-08-21 02:00:00,
2013-08-20 22:04:00,70.9,55.4,0.00,South,186,1.8,1.8,58,0.00,,,0.00,VWS V14.01,2013-08-21 02:04:00,
2013-08-20 22:09:00,70.9,55.4,0.00,South,187,1.8,1.8,58,0.00,,,0.00,VWS V14.01,2013-08-21 02:09:00,
2013-08-20 22:14:00,70.9,55.4,0.00,West,274,1.8,1.8,58,0.00,,,0.00,VWS V14.01,2013-08-21 02:14:00,
2013-08-20 22:19:00,70.9,55.8,0.00,WSW,237,1.8,1.8,59,0.00,,,0.00,VWS V14.01,2013-08-21 02:19:00,
2013-08-20 22:24:00,70.9,56.3,0.00,West,268,1.8,1.8,60,0.00,,,0.00,VWS V14.01,2013-08-21 02:24:00,
2013-08-20 22:29:00,70.9,56.3,0.00,West,268,1.8,1.8,60,0.00,,,0.00,VWS V14.01,2013-08-21 02:29:00,
2013-08-20 22:34:00,70.9,56.3,0.00,SW,231,1.8,1.8,60,0.00,,,0.00,VWS V14.01,2013-08-21 02:34:00,
2013-08-20 22:39:00,70.9,56.8,0.00,SW,217,1.8,5.8,61,0.00,,,0.00,VWS V14.01,2013-08-21 02:39:00,
2013-08-20 22:44:00,70.9,56.8,0.00,SW,217,1.8,5.8,61,0.00,,,0.00,VWS V14.01,2013-08-21 02:44:00,
2013-08-20 22:49:00,70.7,56.6,0.00,SW,217,1.8,5.8,61,0.00,,,0.00,VWS V14.01,2013-08-21 02:49:00,
2013-08-20 22:54:00,70.5,56.4,0.00,SW,217,1.8,5.8,61,0.00,,,0.00,VWS V14.01,2013-08-21 02:54:00,
2013-08-20 22:59:00,70.3,56.3,0.00,SW,217,1.8,5.8,61,0.00,,,0.00,VWS V14.01,2013-08-21 02:59:00,
2013-08-20 23:00:00,70.9,54.9,0.00,South,186,1.8,1.8,57,0.00,,,0.00,VWS V15.00,2013-08-21 03:00:00,
2013-08-20 23:04:00,70.2,56.1,0.00,SW,217,1.8,1.8,61,0.00,,,0.00,VWS V14.01,2013-08-21 03:04:00,
2013-08-20 23:09:00,70.2,56.5,0.00,SW,217,1.8,1.8,62,0.00,,,0.00,VWS V14.01,2013-08-21 03:09:00,
2013-08-20 23:14:00,70.2,56.5,0.00,SW,217,1.8,1.8,62,0.00,,,0.00,VWS V14.01,2013-08-21 03:14:00,
2013-08-20 23:19:00,70.3,57.2,0.00,SW,216,1.8,4.0,63,0.00,,,0.00,VWS V14.01,2013-08-21 03:19:00,
2013-08-20 23:24:00,70.3,57.2,0.00,SW,230,1.8,4.0,63,0.00,,,0.00,VWS V14.01,2013-08-21 03:24:00,
2013-08-20 23:29:00,70.5,57.3,0.00,WSW,250,1.8,4.0,63,0.00,,,0.00,VWS V14.01,2013-08-21 03:29:00,
2013-08-20 23:34:00,70.5,57.8,0.00,WSW,237,1.8,4.0,64,0.00,,,0.00,VWS V14.01,2013-08-21 03:34:00,
2013-08-20 23:39:00,70.5,57.8,0.00,West,267,1.8,4.0,64,0.00,,,0.00,VWS V14.01,2013-08-21 03:39:00,
2013-08-20 23:44:00,70.5,57.8,0.00,SSW,195,1.8,4.0,64,0.00,,,0.00,VWS V14.01,2013-08-21 03:44:00,
2013-08-20 23:49:00,70.5,58.2,0.00,SSW,196,1.8,4.0,65,0.00,,,0.00,VWS V14.01,2013-08-21 03:49:00,
2013-08-20 23:54:00,70.5,58.2,0.00,SSW,196,1.8,4.0,65,0.00,,,0.00,VWS V14.01,2013-08-21 03:54:00,
2013-08-20 23:59:00,70.5,58.2,0.00,SSW,196,1.8,4.0,65,0.00,,,0.00,VWS V14.01,2013-08-21 03:59:00,